Creston, IA

3:31 PM CDT on April 28, 2017 (GMT -0500)
Creston Municipal

Weather History for KCSQ - December, 2013

Change the Weather History Date:

Monday, December 9, 2013

  Actual Average Record
Temperature  
Mean Temperature 2 °F -  
Max Temperature 8 °F 35 °F 57 °F (1993)
Min Temperature -4 °F 20 °F -7 °F (1958)
Degree Days  
Heating Degree Days 63    
Moisture  
Dew Point -6 °F    
Average Humidity 72    
Maximum Humidity 92    
Minimum Humidity 56    
Precipitation  
Precipitation 0.00 in - - ()
Sea Level Pressure  
Sea Level Pressure 30.20 in    
Wind  
Wind Speed 10 mph (WSW)    
Max Wind Speed 18 mph    
Max Gust Speed 24 mph    
Visibility 10 miles    
Events Snow    
Averages and records for this station are not official NWS values.
T = Trace of Precipitation, MM = Missing Value Source: NWS Daily Summary

Daily Weather History Graph

Daily Weather History Graph

Search for Another Location

Airport or City:

Trip Planner

Search our weather history database for the weather conditions in past years. The results will help you decide how hot, cold, wet, or windy it might be!

Date:

Astronomy

Dec. 09, 2013 Rise Set
Actual Time 7:30 AM CST 4:48 PM CST
Civil Twilight 6:59 AM CST 5:19 PM CST
Nautical Twilight 6:25 AM CST 5:54 PM CST
Astronomical Twilight 5:52 AM CST 6:27 PM CST
Moon 12:21 PM CST (12/9) No Moon Set
Length of Visible Light 10h 20m
Length of Day
9h 18m
Waxing Crescent, 51% of the Moon is Illuminated
Dec 9
Waxing Crescent
Dec 17
Full
Dec 25
Last Quarter
Jan 1
New
Jan 7
First Quarter

Hourly Weather History & Observations

Time (CST) Temp. Windchill Dew Point Humidity Pressure Visibility Wind Dir Wind Speed Gust Speed Precip Events Conditions
12:15 AM 8.6 °F -7.0 °F 5.0 °F 85% 30.08 in 10.0 mi WNW 12.7 mph - N/A   Scattered Clouds
12:35 AM 6.8 °F -7.8 °F 3.2 °F 85% 30.09 in 10.0 mi WNW 10.4 mph - N/A   Clear
12:55 AM 6.8 °F -7.8 °F 3.2 °F 85% 30.09 in 10.0 mi WNW 10.4 mph - N/A   Clear
1:15 AM 6.8 °F -5.9 °F 3.2 °F 85% 30.10 in 10.0 mi West 8.1 mph - N/A   Clear
1:35 AM 5.0 °F -9.1 °F 3.2 °F 92% 30.10 in 10.0 mi West 9.2 mph - N/A   Clear
1:55 AM 3.2 °F -12.2 °F -0.4 °F 85% 30.11 in 10.0 mi West 10.4 mph - N/A   Clear
2:15 AM 3.2 °F -7.8 °F -0.4 °F 85% 30.12 in 10.0 mi WSW 5.8 mph - N/A   Clear
2:35 AM 3.2 °F -7.8 °F -2.2 °F 78% 30.12 in 10.0 mi West 5.8 mph - N/A Snow Light Snow
2:55 AM 3.2 °F -7.8 °F -2.2 °F 78% 30.13 in 10.0 mi WSW 5.8 mph - N/A Snow Light Snow
3:15 AM 3.2 °F -9.1 °F -2.2 °F 78% 30.13 in 10.0 mi West 6.9 mph - N/A Snow Light Snow
3:35 AM 1.4 °F -9.9 °F -2.2 °F 85% 30.13 in 10.0 mi West 5.8 mph - N/A Snow Light Snow
3:55 AM 1.4 °F -13.5 °F -2.2 °F 85% 30.11 in 10.0 mi West 9.2 mph - N/A Snow Light Snow
4:15 AM 1.4 °F -11.3 °F -2.2 °F 85% 30.12 in 10.0 mi West 6.9 mph - N/A   Clear
4:35 AM 1.4 °F -11.3 °F -4.0 °F 78% 30.12 in 8.0 mi West 6.9 mph - N/A   Clear
4:55 AM -0.4 °F -13.4 °F -4.0 °F 85% 30.13 in 10.0 mi WSW 6.9 mph - N/A   Clear
5:15 AM -2.2 °F -18.0 °F -5.8 °F 85% 30.17 in 9.0 mi WSW 9.2 mph - N/A   Clear
5:35 AM -2.2 °F -16.8 °F -7.6 °F 78% 30.17 in 10.0 mi West 8.1 mph - N/A   Partly Cloudy
5:55 AM -2.2 °F - -7.6 °F 78% 30.18 in 10.0 mi Calm Calm - N/A   Scattered Clouds
6:15 AM -2.2 °F -16.8 °F -7.6 °F 78% 30.18 in 10.0 mi West 8.1 mph - N/A   Partly Cloudy
6:35 AM -2.2 °F -18.0 °F -7.6 °F 78% 30.19 in 9.0 mi West 9.2 mph - N/A   Mostly Cloudy
6:55 AM -2.2 °F -18.9 °F -7.6 °F 78% 30.19 in 10.0 mi WNW 10.4 mph - N/A   Overcast
7:15 AM -2.2 °F -19.9 °F -7.6 °F 78% 30.19 in 10.0 mi WNW 11.5 mph - N/A   Overcast
7:35 AM -4.0 °F -22.1 °F -9.4 °F 78% 30.20 in 10.0 mi WNW 11.5 mph - N/A   Partly Cloudy
7:55 AM -4.0 °F -21.2 °F -9.4 °F 78% 30.21 in 10.0 mi WNW 10.4 mph - N/A   Clear
8:15 AM -4.0 °F -20.2 °F -11.2 °F 71% 30.21 in 10.0 mi West 9.2 mph - N/A   Clear
8:35 AM -4.0 °F -21.2 °F -9.4 °F 78% 30.22 in 9.0 mi WNW 10.4 mph - N/A   Clear
8:55 AM -2.2 °F -19.9 °F -7.6 °F 78% 30.24 in 10.0 mi West 11.5 mph - N/A   Clear
9:15 AM -0.4 °F -21.2 °F -5.8 °F 78% 30.24 in 10.0 mi WNW 17.3 mph - N/A   Clear
9:35 AM -0.4 °F -21.7 °F -5.8 °F 78% 30.26 in 10.0 mi WNW 18.4 mph 24.2 mph N/A   Clear
9:55 AM -0.4 °F -21.2 °F -5.8 °F 78% 30.27 in 10.0 mi WNW 17.3 mph 23.0 mph N/A   Clear
10:15 AM 1.4 °F -18.2 °F -5.8 °F 72% 30.28 in 10.0 mi WNW 16.1 mph - N/A   Clear
10:35 AM 1.4 °F -17.6 °F -5.8 °F 72% 30.29 in 10.0 mi WNW 15.0 mph 20.7 mph N/A   Clear
10:55 AM 1.4 °F -16.9 °F -7.6 °F 66% 30.29 in 10.0 mi WNW 13.8 mph - N/A   Clear
11:15 AM 1.4 °F -17.6 °F -7.6 °F 66% 30.29 in 10.0 mi WNW 15.0 mph - N/A   Clear
11:35 AM 1.4 °F -17.6 °F -7.6 °F 66% 30.29 in 10.0 mi WNW 15.0 mph - N/A   Clear
11:55 AM 3.2 °F -13.1 °F -7.6 °F 61% 30.29 in 10.0 mi WNW 11.5 mph 19.6 mph N/A   Clear
12:15 PM 3.2 °F -13.9 °F -7.6 °F 61% 30.28 in 10.0 mi WNW 12.7 mph - N/A   Clear
12:35 PM 5.0 °F -11.6 °F -5.8 °F 61% 30.28 in 10.0 mi West 12.7 mph - N/A   Clear
12:55 PM 5.0 °F -10.8 °F -7.6 °F 56% 30.27 in 10.0 mi West 11.5 mph - N/A   Clear
1:15 PM 5.0 °F -11.6 °F -5.8 °F 61% 30.27 in 10.0 mi West 12.7 mph - N/A   Clear
1:35 PM 6.8 °F -7.8 °F -5.8 °F 56% 30.26 in 10.0 mi West 10.4 mph - N/A   Clear
1:55 PM 6.8 °F -5.9 °F -5.8 °F 56% 30.26 in 10.0 mi WSW 8.1 mph 21.9 mph N/A   Clear
2:15 PM 6.8 °F -6.9 °F -5.8 °F 56% 30.26 in 10.0 mi WSW 9.2 mph - N/A   Clear
2:35 PM 6.8 °F -7.8 °F -5.8 °F 56% 30.26 in 10.0 mi WSW 10.4 mph - N/A   Clear
2:55 PM 6.8 °F -6.9 °F -4.0 °F 61% 30.25 in 10.0 mi SW 9.2 mph - N/A   Clear
3:15 PM 6.8 °F -6.9 °F -4.0 °F 61% 30.25 in 10.0 mi SW 9.2 mph - N/A   Clear
3:35 PM 6.8 °F -5.9 °F -5.8 °F 56% 30.24 in 10.0 mi WSW 8.1 mph - N/A   Clear
3:55 PM 6.8 °F -5.9 °F -5.8 °F 56% 30.24 in 10.0 mi SW 8.1 mph - N/A   Clear
4:15 PM 5.0 °F -8.1 °F -5.8 °F 61% 30.24 in 10.0 mi SW 8.1 mph - N/A   Clear
4:35 PM 5.0 °F -9.1 °F -5.8 °F 61% 30.24 in 10.0 mi WSW 9.2 mph - N/A   Clear
4:55 PM 1.4 °F -12.5 °F -7.6 °F 66% 30.24 in 10.0 mi WSW 8.1 mph - N/A   Clear
5:15 PM 1.4 °F -13.5 °F -7.6 °F 66% 30.23 in 10.0 mi SW 9.2 mph - N/A   Clear
5:35 PM -0.4 °F -14.7 °F -7.6 °F 72% 30.23 in 10.0 mi WSW 8.1 mph - N/A   Clear
5:55 PM -0.4 °F -13.4 °F -9.4 °F 66% 30.22 in 10.0 mi WSW 6.9 mph - N/A   Clear
6:15 PM -2.2 °F -18.0 °F -9.4 °F 71% 30.20 in 10.0 mi SW 9.2 mph - N/A   Clear
6:35 PM -0.4 °F -15.7 °F -9.4 °F 66% 30.20 in 10.0 mi SW 9.2 mph - N/A   Clear
6:55 PM -2.2 °F -16.8 °F -9.4 °F 71% 30.20 in 10.0 mi SW 8.1 mph - N/A   Clear
7:15 PM -2.2 °F -16.8 °F -9.4 °F 71% 30.20 in 10.0 mi WSW 8.1 mph - N/A   Clear
7:35 PM -4.0 °F -19.0 °F -11.2 °F 71% 30.21 in 10.0 mi WSW 8.1 mph - N/A   Clear
7:55 PM -2.2 °F -18.9 °F -9.4 °F 71% 30.21 in 10.0 mi WSW 10.4 mph - N/A   Clear
8:15 PM -4.0 °F -16.3 °F -11.2 °F 71% 30.20 in 10.0 mi SW 5.8 mph - N/A   Clear
8:35 PM -2.2 °F -18.0 °F -9.4 °F 71% 30.20 in 10.0 mi SW 9.2 mph - N/A   Clear
8:55 PM -2.2 °F -19.9 °F -9.4 °F 71% 30.18 in 10.0 mi SW 11.5 mph - N/A   Clear
9:15 PM -2.2 °F -19.9 °F -9.4 °F 71% 30.17 in 10.0 mi SSW 11.5 mph - N/A   Clear
9:35 PM -2.2 °F -20.7 °F -9.4 °F 71% 30.16 in 10.0 mi SSW 12.7 mph - N/A   Clear
9:55 PM -0.4 °F -19.2 °F -7.6 °F 72% 30.15 in 10.0 mi SW 13.8 mph - N/A   Clear
10:15 PM 1.4 °F -15.3 °F -7.6 °F 66% 30.15 in 10.0 mi SW 11.5 mph - N/A   Clear
10:35 PM 1.4 °F -16.1 °F -7.6 °F 66% 30.14 in 10.0 mi SW 12.7 mph - N/A   Clear
10:55 PM 1.4 °F -16.1 °F -7.6 °F 66% 30.13 in 10.0 mi SSW 12.7 mph - N/A   Clear
11:15 PM 1.4 °F -17.6 °F -5.8 °F 72% 30.12 in 10.0 mi SSW 15.0 mph - N/A   Clear
11:35 PM 3.2 °F -16.5 °F -5.8 °F 66% 30.11 in 10.0 mi SSW 17.3 mph - N/A   Clear
11:55 PM 5.0 °F -14.2 °F -4.0 °F 66% 30.10 in 10.0 mi SW 17.3 mph 24.2 mph N/A   Clear